Flag Weather past 2 weeks in Dover, Delaware, U.S.A.

Now
39 °F

Overcast.


Feels Like: 35 °F
Forecast: 41 / 56 °F
Wind: 5 mph from North

Location: Dover Air Force Base

Current Time: Oct 31, 2014 at 6:07:51 AM

Latest Report: Oct 31, 2014 at 4:58 AM


Visibility: 10 mi

Pressure: 30.00 "Hg

Humidity: 94%

Dew point: 37 °F

Location of DoverLocation

Historic Weather in Dover — Graph

°F

Dover temperature yesterday

Maximum temperature yesterday: 60 °F (at 2:58 PM)
Minimum temperature yesterday: 42 °F (at 11:58 PM)
Average temperature yesterday: 50 °F

Past Weeks' High & Low Weather Summary

 TemperatureHumidityPressure
High74 °F (Oct 28, 2:58 PM)100% (Oct 16, 4:58 AM)30.14 "Hg (Oct 16, 4:58 AM)
Low38 °F (Oct 20, 7:58 AM)30% (Oct 27, 2:58 PM)29.60 "Hg (Oct 18, 7:03 AM)
Average57 °F72%29.86 "Hg
* Reported Oct 16 4:58 AM — Oct 31 4:58 AM, Dover, Weather by CustomWeather, © 2014

Note: Actual official high and low records may vary slightly from our data, if they occured in-between our weather recording intervals... More about our weather records

Advertising

Dover weather history for previous 24 hours

 ConditionsComfort  
Time TempWeatherWind HumidityBarometerVisibility
4:58 AM
Oct 31
39 °FOvercast.5 mph94%30.00 "Hg10 mi
3:58 AM41 °FClear.5 mph90%29.99 "Hg10 mi
2:58 AM43 °FPassing clouds.3 mph84%30.00 "Hg10 mi
1:58 AM43 °FPassing clouds.3 mph84%30.01 "Hg10 mi
12:58 AM42 °FPassing clouds.3 mph89%30.02 "Hg10 mi
11:58 PM
Oct 30
42 °FClear.5 mph88%30.02 "Hg10 mi
10:58 PM45 °FClear.6 mph79%30.03 "Hg10 mi
9:58 PM47 °FClear.6 mph74%30.02 "Hg10 mi
8:58 PM47 °FClear.2 mph76%30.02 "Hg10 mi
7:58 PM49 °FClear.6 mph67%30.02 "Hg10 mi
6:58 PM51 °FSunny.8 mph62%30.01 "Hg10 mi
5:58 PM54 °FSunny.8 mph57%30.00 "Hg10 mi
4:58 PM58 °FPassing clouds.8 mph51%29.98 "Hg10 mi
3:58 PM58 °FScattered clouds.10 mph53%29.98 "Hg10 mi
2:58 PM60 °FOvercast.10 mph48%29.98 "Hg10 mi
1:58 PM57 °FPartly sunny.3 mph52%30.00 "Hg10 mi
12:58 PM58 °FSunny.3 mph57%30.01 "Hg10 mi
11:58 AM54 °FOvercast.7 mph65%30.03 "Hg10 mi
10:58 AM53 °FOvercast.10 mph72%30.03 "Hg10 mi
9:58 AM50 °FOvercast.12 mph100%30.03 "Hg10 mi
8:58 AM48 °FOvercast.5 mph100%30.02 "Hg10 mi
8:03 AM45 °FFog.3 mph100%30.00 "Hg1 mi
7:58 AM45 °FFog.2 mph100%30.00 "Hg1 mi
7:03 AM46 °FFog.3 mph100%29.98 "Hg1 mi
6:58 AM46 °FFog.3 mph100%29.99 "Hg0 mi
Weather by CustomWeather, © 2014

See weather overviewHow to use our weather pages